Regional Weather Roundup
Issued by NWS

Home | Current Version | Previous Version | Text Only | Print | Product List | Glossary Off
Versions: 1 2 3 4 5 6 7 8 9 10 11 12 13 14 15 16 17 18 19 20 21 22 23 24 25 26 27 28 29 30 31 32 33 34 35 36 37 38 39 40 41 42 43 44 45 46 47 48 49 50

000
ASUS45 KTFX 011710
RWRMT
MONTANA REGIONAL WEATHER ROUNDUP
NATIONAL WEATHER SERVICE GREAT FALLS MT
1100 AM MDT SAT AUG 01 2015

NOTE: "FAIR" INDICATES FEW OR NO CLOUDS BELOW 12000 FEET WITH NO
SIGNIFICANT WEATHER AND/OR OBSTRUCTIONS TO VISIBILITY.

MTZ001>007-043-011800-
WEST OF THE DIVIDE

CITY           SKY/WX    TMP DP  RH WIND       PRES   REMARKS
KALISPELL      SUNNY     78  39  24 VRB3      30.01F
MISSOULA       SUNNY     73  35  25 VRB3      30.09F
BUTTE          SUNNY     75  32  20 N3        30.21F
MULLAN PASS    SUNNY     76  25  15 NW6       30.23S
DEER LODGE       N/A     75  41  29 N5        30.19F
EUREKA           N/A     72  37  28 S3        30.01F
HAMILTON         N/A     75  41  29 N2        30.09F
LIBBY            N/A     75  34  22 E3        29.98F
RONAN            N/A     84  40  21 SE1       30.07F
$$

MTZ008-052>055-011800-
SOUTHWEST MONTANA

CITY           SKY/WX    TMP DP  RH WIND       PRES   REMARKS
BOZEMAN        SUNNY     76  47  35 VRB5      30.15F
DILLON         SUNNY     74  40  29 SW6       30.20F
W YELLOWSTONE  SUNNY     64  39  39 CALM      30.34F
THREE FORKS      N/A     76  59  55 NE3       30.12F
TWIN BRIDGES     N/A     72  44  36 S5        30.16F
$$

MTZ009-010-012-014-046-048-049-054-011800-
EAST SLOPES AND CENTRAL MONTANA

CITY           SKY/WX    TMP DP  RH WIND       PRES   REMARKS
CUT BANK       SUNNY     90  23   9 W10G25    30.00S
GREAT FALLS    SUNNY     87  35  15 SW9       30.02F
MALMSTROM AFB  SUNNY     86  38  18 SW13      30.01F
HELENA         SUNNY     76  40  27 CALM      30.10F
CONRAD           N/A     90  32  12 W15       30.02F
$$

MTZ011-013-016-021-045-047-050-051-011800-
NORTH CENTRAL MONTANA

CITY           SKY/WX    TMP DP  RH WIND       PRES   REMARKS
HAVRE          SUNNY     84  39  20 SW12      29.92F
LEWISTOWN      SUNNY     87  35  15 W10       30.06F
CHINOOK          N/A     84  41  21 W13       29.90F
FORT BENTON      N/A     88  37  16 SW8       29.95F
$$

MTZ017>020-022>027-061-062-011800-
NORTHEAST MONTANA

CITY           SKY/WX    TMP DP  RH WIND       PRES   REMARKS
GLASGOW        SUNNY     85  51  31 S7        29.87F
JORDAN           N/A     93  36  13 W16G23    29.91F
SIDNEY         SUNNY    N/A N/A N/A S8        29.89F
WOLF POINT     SUNNY     85  54  34 W5        29.88F
MALTA            N/A     83  51  32 SW10      29.86F
PLENTYWOOD       N/A     84  54  34 S6        29.89F
POPLAR           N/A     84  54  34 SE5       29.88F
$$

MTZ028>42-056>058-011800-
SOUTHCENTRAL AND SOUTHEAST MONTANA

CITY           SKY/WX    TMP DP  RH WIND       PRES   REMARKS
BAKER          SUNNY     88  44  21 NW14      29.99S
BILLINGS       MOSUNNY   80  41  24 SW13      30.06F
LIVINGSTON     SUNNY     83  37  19 NW13      30.14F
MILES CITY     SUNNY     88  44  21 SW8       29.95F
FORSYTH          N/A     88  46  23 W5        29.96F
LAUREL           N/A     84  40  21 S9        30.04F
ROUNDUP          N/A     86  39  18 SW9       29.93F
$$

REGIONAL REPORTS...DAKOTAS

CITY           SKY/WX    TMP DP  RH WIND       PRES   REMARKS
WILLISTON      SUNNY     82  56  40 VRB5      29.90S
MINOT          SUNNY     81  51  35 S8        29.88S
DICKINSON      SUNNY     83  52  34 NW7       29.92S
CROSBY         FAIR      82  57  42 S12       29.89F
BISMARCK       SUNNY     82  60  47 VRB3      29.87F
GRAND FORKS    MOSUNNY   81  52  36 SW12      29.86F
FARGO          SUNNY     80  55  42 S7        29.90F
BUFFALO SD       N/A     91  32  12 N14       29.92R
RAPID CITY     SUNNY     83  59  44 S6        30.03S
$$

REGIONAL REPORTS...WYOMING/IDAHO/WASHINGTON

CITY           SKY/WX    TMP DP  RH WIND       PRES   REMARKS
GILLETTE       SUNNY     87  37  17 N9        30.11S
SHERIDAN       SUNNY     89  30  12 VRB3      30.08F
BUFFALO WY     SUNNY     88  30  12 N8        30.16F
CODY           SUNNY     84  34  16 S5        30.17F
YELLOWSTONE LA   N/A     62  40  44 VRB3      30.44F
IDAHO FALLS    SUNNY     78  43  28 VRB3      30.20F
SALMON         SUNNY     70  39  32 CALM      30.15F
BOISE          SUNNY     88  35  15 SE6       30.04F
SPOKANE        MOSUNNY   85  34  16 SW9       29.98F
$$

REGIONAL REPORTS...ALBERTA

CITY           SKY/WX    TMP DP  RH WIND       PRES   REMARKS
EDMONTON       LGT RAIN  61  54  77 W8G17     30.02R
CALGARY        MOSUNNY   73  54  49 NE12      30.00R
LETHBRIDGE     SUNNY     79  45  29 SW7       29.94F
MEDICINE HAT   MOSUNNY   77  48  36 VRB5      29.90F
WATERTON GATE    N/A     84  36  17 SW14G21     N/A
MILK RIVER       N/A     86  36  16 W6          N/A
ONEFOUR          N/A     81  46  30 NW15        N/A
$$

REGIONAL REPORTS...SASKATCHEWAN

CITY           SKY/WX    TMP DP  RH WIND       PRES   REMARKS
SWIFT CURRENT  SUNNY     79  50  36 NW10      29.86R
REGINA         MOSUNNY   81  59  47 VRB2      29.85F
SASKATOON      PTSUNNY   73  55  53 NE13      29.88F
CYPRESS HILLS    N/A     79  43  27 NW8         N/A
VAL MARIE        N/A     84  45  24 W10         N/A
ROCKGLEN         N/A     82  50  32 S12         N/A
$$


USA.gov is the U.S. government's official web portal to all federal, state and local government web resources and services.